| time (UTC) | temp F | wind direction | speed MPH | gust MPH | rain 1hr in | rain 24hr in | rain mn in | humidity % | barometer mb |
| 20260831220552 | 77 | 132 | 12.0 | 0.0 | 0.00 | 0.00 | 0.00 | 13 | 1009.8 |
| 20260831220059 | 76 | 167 | 12.0 | 0.0 | 0.00 | 0.00 | 0.00 | 14 | 1009.8 |
| 20260831215513 | 77 | 159 | 13.0 | 0.0 | 0.00 | 0.00 | 0.00 | 14 | 1010.0 |
| 20260831215026 | 76 | 159 | 14.0 | 0.0 | 0.00 | 0.00 | 0.00 | 14 | 1009.8 |
| 20260831214535 | 76 | 171 | 15.0 | 0.0 | 0.00 | 0.00 | 0.00 | 14 | 1009.9 |
| 20260831214048 | 76 | 178 | 14.0 | 0.0 | 0.00 | 0.00 | 0.00 | 14 | 1009.9 |
| 20260831213504 | 76 | 157 | 14.0 | 0.0 | 0.00 | 0.00 | 0.00 | 14 | 1010.1 |
| 20260831213018 | 76 | 184 | 14.0 | 0.0 | 0.00 | 0.00 | 0.00 | 15 | 1010.1 |
| 20260831212540 | 76 | 140 | 14.0 | 0.0 | 0.00 | 0.00 | 0.00 | 15 | 1010.1 |
| 20260831212057 | 76 | 154 | 14.0 | 0.0 | 0.00 | 0.00 | 0.00 | 15 | 1010.2 |
| 20260831211502 | 76 | 180 | 14.0 | 0.0 | 0.00 | 0.00 | 0.00 | 16 | 1010.3 |
| 20260831211008 | 76 | 123 | 15.0 | 0.0 | 0.00 | 0.00 | 0.00 | 16 | 1010.3 |
| 20260831210532 | 75 | 198 | 16.0 | 0.0 | 0.00 | 0.00 | 0.00 | 16 | 1010.4 |
| 20260831210052 | 75 | 111 | 14.0 | 0.0 | 0.00 | 0.00 | 0.00 | 16 | 1010.4 |
| 20260831205502 | 75 | 150 | 15.0 | 0.0 | 0.00 | 0.00 | 0.00 | 17 | 1010.6 |
| 20260831205027 | 75 | 133 | 16.0 | 0.0 | 0.00 | 0.00 | 0.00 | 17 | 1010.5 |
| 20260831204543 | 75 | 135 | 15.0 | 0.0 | 0.00 | 0.00 | 0.00 | 17 | 1010.6 |
| 20260831204007 | 75 | 130 | 16.0 | 0.0 | 0.00 | 0.00 | 0.00 | 16 | 1010.6 |
| 20260831203518 | 75 | 114 | 16.0 | 0.0 | 0.00 | 0.00 | 0.00 | 17 | 1010.5 |
| 20260831203033 | 75 | 158 | 15.0 | 0.0 | 0.00 | 0.00 | 0.00 | 17 | 1010.6 |
| 20260831202537 | 75 | 184 | 15.0 | 0.0 | 0.00 | 0.00 | 0.00 | 19 | 1010.8 |
| 20260831202050 | 74 | 180 | 15.0 | 0.0 | 0.00 | 0.00 | 0.00 | 18 | 1010.9 |
| 20260831201556 | 74 | 136 | 14.0 | 0.0 | 0.00 | 0.00 | 0.00 | 18 | 1010.9 |
| 20260831201014 | 74 | 137 | 14.0 | 0.0 | 0.00 | 0.00 | 0.00 | 18 | 1010.8 |
| 20260831200535 | 73 | 107 | 15.0 | 0.0 | 0.00 | 0.00 | 0.00 | 18 | 1011.1 |
| 20260831200044 | 73 | 114 | 15.0 | 0.0 | 0.00 | 0.00 | 0.00 | 18 | 1011.1 |
| 20260831195507 | 73 | 109 | 16.0 | 0.0 | 0.00 | 0.00 | 0.00 | 19 | 1011.2 |
| 20260831195026 | 73 | 98 | 16.0 | 0.0 | 0.00 | 0.00 | 0.00 | 19 | 1011.2 |
| 20260831194537 | 73 | 136 | 15.0 | 0.0 | 0.00 | 0.00 | 0.00 | 19 | 1011.4 |
| 20260831194047 | 73 | 122 | 14.0 | 0.0 | 0.00 | 0.00 | 0.00 | 18 | 1011.3 |
| 20260831193601 | 73 | 126 | 14.0 | 0.0 | 0.00 | 0.00 | 0.00 | 19 | 1011.3 |
| 20260831193012 | 73 | 168 | 14.0 | 0.0 | 0.00 | 0.00 | 0.00 | 19 | 1011.5 |
| 20260831192519 | 73 | 142 | 14.0 | 0.0 | 0.00 | 0.00 | 0.00 | 19 | 1011.5 |
| 20260831192028 | 73 | 178 | 13.0 | 0.0 | 0.00 | 0.00 | 0.00 | 19 | 1011.7 |
| 20260831191536 | 72 | 178 | 12.0 | 0.0 | 0.00 | 0.00 | 0.00 | 20 | 1011.9 |
| 20260831191044 | 72 | 127 | 13.0 | 0.0 | 0.00 | 0.00 | 0.00 | 21 | 1011.7 |
| 20260831190552 | 71 | 122 | 14.0 | 0.0 | 0.00 | 0.00 | 0.00 | 22 | 1011.8 |
| 20260831190008 | 71 | 156 | 13.0 | 0.0 | 0.00 | 0.00 | 0.00 | 21 | 1011.8 |
| 20260831185526 | 71 | 153 | 13.0 | 0.0 | 0.00 | 0.00 | 0.00 | 21 | 1012.0 |
| 20260831185038 | 71 | 121 | 13.0 | 0.0 | 0.00 | 0.00 | 0.00 | 21 | 1011.9 |
| 20260831184552 | 71 | 150 | 13.0 | 0.0 | 0.00 | 0.00 | 0.00 | 21 | 1011.8 |
| 20260831184001 | 70 | 115 | 14.0 | 0.0 | 0.00 | 0.00 | 0.00 | 20 | 1011.9 |
| 20260831183514 | 70 | 171 | 14.0 | 0.0 | 0.00 | 0.00 | 0.00 | 21 | 1012.2 |
| 20260831183034 | 70 | 131 | 15.0 | 0.0 | 0.00 | 0.00 | 0.00 | 21 | 1012.2 |
| 20260831182540 | 69 | 150 | 16.0 | 0.0 | 0.00 | 0.00 | 0.00 | 21 | 1012.3 |
| 20260831182047 | 69 | 170 | 15.0 | 0.0 | 0.00 | 0.00 | 0.00 | 20 | 1012.3 |
| 20260831181512 | 69 | 109 | 13.0 | 0.0 | 0.00 | 0.00 | 0.00 | 21 | 1012.4 |
| 20260831181021 | 69 | 106 | 13.0 | 0.0 | 0.00 | 0.00 | 0.00 | 21 | 1012.5 |
| 20260831180535 | 69 | 127 | 13.0 | 0.0 | 0.00 | 0.00 | 0.00 | 20 | 1012.5 |
| 20260831180045 | 69 | 172 | 13.0 | 0.0 | 0.00 | 0.00 | 0.00 | 21 | 1012.7 |
| 20260831175555 | 68 | 130 | 14.0 | 0.0 | 0.00 | 0.00 | 0.00 | 20 | 1012.7 |
| 20260831175001 | 68 | 110 | 14.0 | 0.0 | 0.00 | 0.00 | 0.00 | 20 | 1012.6 |
| 20260831174515 | 68 | 138 | 14.0 | 0.0 | 0.00 | 0.00 | 0.00 | 21 | 1012.6 |
| 20260831174039 | 68 | 184 | 14.0 | 0.0 | 0.00 | 0.00 | 0.00 | 20 | 1012.9 |
| 20260831173552 | 67 | 172 | 14.0 | 0.0 | 0.00 | 0.00 | 0.00 | 21 | 1012.8 |
| 20260831173002 | 66 | 137 | 15.0 | 0.0 | 0.00 | 0.00 | 0.00 | 22 | 1012.9 |
| 20260831172508 | 66 | 165 | 14.0 | 0.0 | 0.00 | 0.00 | 0.00 | 21 | 1013.0 |
| 20260831172017 | 66 | 160 | 14.0 | 0.0 | 0.00 | 0.00 | 0.00 | 23 | 1013.2 |
| 20260831171538 | 66 | 162 | 15.0 | 0.0 | 0.00 | 0.00 | 0.00 | 25 | 1013.1 |
| 20260831171044 | 65 | 175 | 15.0 | 0.0 | 0.00 | 0.00 | 0.00 | 24 | 1013.1 |
| 20260831170550 | 65 | 161 | 15.0 | 0.0 | 0.00 | 0.00 | 0.00 | 24 | 1013.2 |
| 20260831165516 | 64 | 129 | 16.0 | 0.0 | 0.00 | 0.00 | 0.00 | 24 | 1013.2 |
| 20260831165035 | 64 | 128 | 15.0 | 0.0 | 0.00 | 0.00 | 0.00 | 24 | 1013.2 |
| 20260831164540 | 64 | 183 | 14.0 | 0.0 | 0.00 | 0.00 | 0.00 | 22 | 1013.3 |
| 20260831164049 | 63 | 168 | 14.0 | 0.0 | 0.00 | 0.00 | 0.00 | 25 | 1013.3 |
| 20260831163515 | 63 | 142 | 14.0 | 0.0 | 0.00 | 0.00 | 0.00 | 25 | 1013.3 |
| 20260831163034 | 63 | 148 | 14.0 | 0.0 | 0.00 | 0.00 | 0.00 | 25 | 1013.2 |
| 20260831162535 | 62 | 148 | 13.0 | 0.0 | 0.00 | 0.00 | 0.00 | 24 | 1013.4 |
| 20260831162046 | 62 | 159 | 14.0 | 0.0 | 0.00 | 0.00 | 0.00 | 25 | 1013.3 |
| 20260831161604 | 62 | 134 | 14.0 | 0.0 | 0.00 | 0.00 | 0.00 | 25 | 1013.5 |
| 20260831161015 | 61 | 148 | 14.0 | 0.0 | 0.00 | 0.00 | 0.00 | 25 | 1013.5 |
| 20260831160526 | 61 | 137 | 14.0 | 0.0 | 0.00 | 0.00 | 0.00 | 26 | 1013.6 |
| 20260831160053 | 60 | 168 | 14.0 | 0.0 | 0.00 | 0.00 | 0.00 | 27 | 1013.5 |
| 20260831155550 | 60 | 136 | 14.0 | 0.0 | 0.00 | 0.00 | 0.00 | 28 | 1013.6 |
| 20260831155057 | 60 | 134 | 14.0 | 0.0 | 0.00 | 0.00 | 0.00 | 30 | 1013.7 |
| 20260831154504 | 59 | 165 | 14.0 | 0.0 | 0.00 | 0.00 | 0.00 | 31 | 1013.8 |
| 20260831154020 | 59 | 129 | 13.0 | 0.0 | 0.00 | 0.00 | 0.00 | 31 | 1013.8 |
| 20260831153535 | 59 | 144 | 12.0 | 0.0 | 0.00 | 0.00 | 0.00 | 31 | 1013.9 |
| 20260831153047 | 58 | 151 | 12.0 | 0.0 | 0.00 | 0.00 | 0.00 | 31 | 1013.9 |
| 20260831152553 | 58 | 180 | 12.0 | 0.0 | 0.00 | 0.00 | 0.00 | 32 | 1014.0 |
| 20260831152105 | 58 | 123 | 11.0 | 0.0 | 0.00 | 0.00 | 0.00 | 31 | 1014.0 |
| 20260831151518 | 57 | 151 | 9.0 | 0.0 | 0.00 | 0.00 | 0.00 | 32 | 1014.0 |
| 20260831151021 | 57 | 155 | 9.0 | 0.0 | 0.00 | 0.00 | 0.00 | 33 | 1014.0 |
| 20260831150539 | 56 | 190 | 10.0 | 0.0 | 0.00 | 0.00 | 0.00 | 33 | 1013.9 |
| 20260831150058 | 56 | 186 | 11.0 | 0.0 | 0.00 | 0.00 | 0.00 | 33 | 1013.9 |
| 20260831145509 | 56 | 136 | 9.0 | 0.0 | 0.00 | 0.00 | 0.00 | 34 | 1014.1 |
| 20260831145028 | 55 | 144 | 9.0 | 0.0 | 0.00 | 0.00 | 0.00 | 35 | 1014.2 |
| 20260831144548 | 55 | 140 | 9.0 | 0.0 | 0.00 | 0.00 | 0.00 | 36 | 1014.1 |
| 20260831144003 | 54 | 149 | 8.0 | 0.0 | 0.00 | 0.00 | 0.00 | 37 | 1014.0 |
| 20260831143523 | 53 | 143 | 7.0 | 0.0 | 0.00 | 0.00 | 0.00 | 39 | 1014.0 |
| 20260831143039 | 51 | 159 | 6.0 | 0.0 | 0.00 | 0.00 | 0.00 | 41 | 1013.9 |
| 20260831142544 | 50 | 185 | 7.0 | 0.0 | 0.00 | 0.00 | 0.00 | 47 | 1013.7 |
| 20260831142049 | 49 | 203 | 7.0 | 0.0 | 0.00 | 0.00 | 0.00 | 48 | 1013.7 |
| 20260831141603 | 48 | 229 | 5.0 | 0.0 | 0.00 | 0.00 | 0.00 | 49 | 1013.6 |
| 20260831141104 | 47 | 203 | 5.0 | 0.0 | 0.00 | 0.00 | 0.00 | 51 | 1013.7 |
| 20260831140505 | 46 | 206 | 6.0 | 0.0 | 0.00 | 0.00 | 0.00 | 54 | 1013.7 |
| 20260831140015 | 45 | 202 | 6.0 | 0.0 | 0.00 | 0.00 | 0.00 | 55 | 1013.6 |
| 20260831135519 | 44 | 213 | 7.0 | 0.0 | 0.00 | 0.00 | 0.00 | 58 | 1013.4 |
| 20260831135021 | 43 | 207 | 8.0 | 0.0 | 0.00 | 0.00 | 0.00 | 59 | 1013.4 |
| 20260831134529 | 42 | 208 | 7.0 | 0.0 | 0.00 | 0.00 | 0.00 | 60 | 1013.5 |
| 20260831134040 | 41 | 212 | 7.0 | 0.0 | 0.00 | 0.00 | 0.00 | 61 | 1013.5 |
| 20260831133545 | 41 | 200 | 9.0 | 0.0 | 0.00 | 0.00 | 0.00 | 60 | 1013.3 |
| 20260831133051 | 41 | 206 | 10.0 | 0.0 | 0.00 | 0.00 | 0.00 | 60 | 1013.2 |
| 20260831132600 | 41 | 206 | 11.0 | 0.0 | 0.00 | 0.00 | 0.00 | 60 | 1013.1 |
| 20260831132002 | 41 | 215 | 11.0 | 0.0 | 0.00 | 0.00 | 0.00 | 61 | 1012.8 |
| 20260831131509 | 41 | 205 | 12.0 | 0.0 | 0.00 | 0.00 | 0.00 | 61 | 1012.9 |
| 20260831131023 | 41 | 211 | 12.0 | 0.0 | 0.00 | 0.00 | 0.00 | 62 | 1012.8 |
| 20260831130539 | 41 | 220 | 12.0 | 0.0 | 0.00 | 0.00 | 0.00 | 62 | 1012.7 |
| 20260831130052 | 40 | 215 | 11.0 | 0.0 | 0.00 | 0.00 | 0.00 | 62 | 1012.8 |
| 20260831125509 | 41 | 206 | 11.0 | 0.0 | 0.00 | 0.00 | 0.00 | 62 | 1012.7 |
| 20260831125016 | 41 | 211 | 10.0 | 0.0 | 0.00 | 0.00 | 0.00 | 62 | 1012.6 |
| 20260831124527 | 41 | 214 | 10.0 | 0.0 | 0.00 | 0.00 | 0.00 | 62 | 1012.6 |
| 20260831124029 | 41 | 217 | 9.0 | 0.0 | 0.00 | 0.00 | 0.00 | 63 | 1012.6 |
| 20260831123545 | 40 | 205 | 9.0 | 0.0 | 0.00 | 0.00 | 0.00 | 62 | 1012.5 |
| 20260831123051 | 41 | 183 | 9.0 | 0.0 | 0.00 | 0.00 | 0.00 | 62 | 1012.4 |
| 20260831122559 | 41 | 200 | 10.0 | 0.0 | 0.00 | 0.00 | 0.00 | 61 | 1012.4 |
| 20260831122020 | 42 | 209 | 11.0 | 0.0 | 0.00 | 0.00 | 0.00 | 60 | 1012.3 |
| 20260831121529 | 42 | 217 | 11.0 | 0.0 | 0.00 | 0.00 | 0.00 | 59 | 1012.4 |
| 20260831121043 | 42 | 203 | 12.0 | 0.0 | 0.00 | 0.00 | 0.00 | 59 | 1012.6 |
| 20260831120558 | 42 | 193 | 11.0 | 0.0 | 0.00 | 0.00 | 0.00 | 59 | 1012.6 |
| 20260831120105 | 42 | 167 | 11.0 | 0.0 | 0.00 | 0.00 | 0.00 | 59 | 1012.6 |
| 20260831115520 | 42 | 215 | 11.0 | 0.0 | 0.00 | 0.00 | 0.00 | 59 | 1012.6 |
| 20260831115029 | 42 | 208 | 11.0 | 0.0 | 0.00 | 0.00 | 0.00 | 59 | 1012.5 |
| 20260831114550 | 42 | 215 | 11.0 | 0.0 | 0.00 | 0.00 | 0.00 | 58 | 1012.5 |
| 20260831114055 | 42 | 197 | 11.0 | 0.0 | 0.00 | 0.00 | 0.00 | 58 | 1012.5 |
| 20260831113501 | 42 | 199 | 10.0 | 0.0 | 0.00 | 0.00 | 0.00 | 59 | 1012.5 |
| 20260831113020 | 41 | 195 | 9.0 | 0.0 | 0.00 | 0.00 | 0.00 | 60 | 1012.5 |
| 20260831112545 | 41 | 215 | 10.0 | 0.0 | 0.00 | 0.00 | 0.00 | 60 | 1012.5 |
| 20260831112054 | 41 | 213 | 9.0 | 0.0 | 0.00 | 0.00 | 0.00 | 61 | 1012.4 |
| 20260831111510 | 41 | 203 | 8.0 | 0.0 | 0.00 | 0.00 | 0.00 | 61 | 1012.3 |
| 20260831111025 | 42 | 200 | 7.0 | 0.0 | 0.00 | 0.00 | 0.00 | 60 | 1012.4 |
| 20260831110531 | 42 | 209 | 7.0 | 0.0 | 0.00 | 0.00 | 0.00 | 58 | 1012.4 |
| 20260831110056 | 42 | 211 | 8.0 | 0.0 | 0.00 | 0.00 | 0.00 | 59 | 1012.4 |
| 20260831105553 | 41 | 225 | 6.0 | 0.0 | 0.00 | 0.00 | 0.00 | 60 | 1012.2 |
| 20260831105105 | 41 | 211 | 6.0 | 0.0 | 0.00 | 0.00 | 0.00 | 60 | 1012.2 |
| 20260831104535 | 42 | 199 | 8.0 | 0.0 | 0.00 | 0.00 | 0.00 | 59 | 1012.1 |
| 20260831104042 | 42 | 194 | 8.0 | 0.0 | 0.00 | 0.00 | 0.00 | 59 | 1012.1 |
| 20260831103556 | 42 | 207 | 8.0 | 0.0 | 0.00 | 0.00 | 0.00 | 59 | 1011.9 |
| 20260831103000 | 43 | 220 | 7.0 | 0.0 | 0.00 | 0.00 | 0.00 | 56 | 1011.8 |
| 20260831102511 | 43 | 209 | 6.0 | 0.0 | 0.00 | 0.00 | 0.00 | 54 | 1012.0 |
| 20260831102033 | 43 | 205 | 7.0 | 0.0 | 0.00 | 0.00 | 0.00 | 55 | 1011.9 |
| 20260831101555 | 43 | 205 | 7.0 | 0.0 | 0.00 | 0.00 | 0.00 | 55 | 1011.9 |
| 20260831101101 | 43 | 202 | 7.0 | 0.0 | 0.00 | 0.00 | 0.00 | 55 | 1011.8 |
| 20260831100516 | 44 | 213 | 7.0 | 0.0 | 0.00 | 0.00 | 0.00 | 54 | 1011.8 |
| 20260831100025 | 44 | 196 | 7.0 | 0.0 | 0.00 | 0.00 | 0.00 | 55 | 1011.7 |
| 20260831095528 | 44 | 213 | 8.0 | 0.0 | 0.00 | 0.00 | 0.00 | 55 | 1011.8 |
| 20260831095046 | 44 | 212 | 7.0 | 0.0 | 0.00 | 0.00 | 0.00 | 54 | 1011.7 |
| 20260831094552 | 44 | 202 | 7.0 | 0.0 | 0.00 | 0.00 | 0.00 | 54 | 1011.8 |
| 20260831094106 | 44 | 196 | 7.0 | 0.0 | 0.00 | 0.00 | 0.00 | 54 | 1011.7 |
| 20260831093515 | 44 | 177 | 6.0 | 0.0 | 0.00 | 0.00 | 0.00 | 54 | 1011.6 |
| 20260831093038 | 44 | 187 | 4.0 | 0.0 | 0.00 | 0.00 | 0.00 | 54 | 1011.5 |
| 20260831092545 | 45 | 181 | 4.0 | 0.0 | 0.00 | 0.00 | 0.00 | 53 | 1011.5 |
| 20260831092059 | 45 | 162 | 5.0 | 0.0 | 0.00 | 0.00 | 0.00 | 51 | 1011.6 |
| 20260831091529 | 46 | 233 | 5.0 | 0.0 | 0.00 | 0.00 | 0.00 | 50 | 1011.6 |
| 20260831091024 | 46 | 203 | 6.0 | 0.0 | 0.00 | 0.00 | 0.00 | 51 | 1011.6 |
| 20260831090530 | 46 | 207 | 7.0 | 0.0 | 0.00 | 0.00 | 0.00 | 51 | 1011.7 |
| 20260831090042 | 46 | 200 | 10.0 | 0.0 | 0.00 | 0.00 | 0.00 | 52 | 1011.5 |
| 20260831085554 | 46 | 201 | 11.0 | 0.0 | 0.00 | 0.00 | 0.00 | 52 | 1011.5 |
| 20260831085004 | 46 | 198 | 11.0 | 0.0 | 0.00 | 0.00 | 0.00 | 52 | 1011.5 |
| 20260831084521 | 46 | 220 | 11.0 | 0.0 | 0.00 | 0.00 | 0.00 | 52 | 1011.5 |
| 20260831084038 | 46 | 187 | 10.0 | 0.0 | 0.00 | 0.00 | 0.00 | 54 | 1011.4 |
| 20260831083546 | 45 | 196 | 7.0 | 0.0 | 0.00 | 0.00 | 0.00 | 55 | 1011.3 |
| 20260831083006 | 45 | 173 | 4.0 | 0.0 | 0.00 | 0.00 | 0.00 | 53 | 1011.5 |
| 20260831082525 | 46 | 184 | 3.0 | 0.0 | 0.00 | 0.00 | 0.00 | 51 | 1011.4 |
| 20260831082040 | 46 | 185 | 4.0 | 0.0 | 0.00 | 0.00 | 0.00 | 50 | 1011.3 |
| 20260831081549 | 45 | 180 | 5.0 | 0.0 | 0.00 | 0.00 | 0.00 | 51 | 1011.3 |
| 20260831081100 | 45 | 213 | 5.0 | 0.0 | 0.00 | 0.00 | 0.00 | 55 | 1011.2 |
| 20260831080523 | 45 | 203 | 8.0 | 0.0 | 0.00 | 0.00 | 0.00 | 54 | 1011.1 |
| 20260831080031 | 45 | 196 | 9.0 | 0.0 | 0.00 | 0.00 | 0.00 | 54 | 1011.0 |
| 20260831075553 | 46 | 200 | 9.0 | 0.0 | 0.00 | 0.00 | 0.00 | 53 | 1011.0 |
| 20260831075106 | 47 | 200 | 9.0 | 0.0 | 0.00 | 0.00 | 0.00 | 50 | 1011.0 |
| 20260831074505 | 46 | 188 | 7.0 | 0.0 | 0.00 | 0.00 | 0.00 | 51 | 1011.0 |
| 20260831074016 | 46 | 195 | 8.0 | 0.0 | 0.00 | 0.00 | 0.00 | 53 | 1010.9 |
| 20260831073522 | 46 | 206 | 9.0 | 0.0 | 0.00 | 0.00 | 0.00 | 53 | 1011.0 |
| 20260831073031 | 45 | 200 | 9.0 | 0.0 | 0.00 | 0.00 | 0.00 | 54 | 1011.0 |
| 20260831072539 | 45 | 200 | 9.0 | 0.0 | 0.00 | 0.00 | 0.00 | 56 | 1010.9 |
| 20260831072053 | 45 | 215 | 8.0 | 0.0 | 0.00 | 0.00 | 0.00 | 55 | 1010.8 |
| 20260831071513 | 46 | 209 | 9.0 | 0.0 | 0.00 | 0.00 | 0.00 | 54 | 1010.7 |
| 20260831071022 | 46 | 191 | 10.0 | 0.0 | 0.00 | 0.00 | 0.00 | 53 | 1010.8 |
| 20260831070532 | 47 | 194 | 9.0 | 0.0 | 0.00 | 0.00 | 0.00 | 52 | 1010.7 |
| 20260831070044 | 47 | 179 | 8.0 | 0.0 | 0.00 | 0.00 | 0.00 | 51 | 1010.7 |
| 20260831065547 | 47 | 217 | 7.0 | 0.0 | 0.00 | 0.00 | 0.00 | 48 | 1010.8 |
| 20260831065057 | 45 | 194 | 7.0 | 0.0 | 0.00 | 0.00 | 0.00 | 54 | 1010.5 |
| 20260831064518 | 45 | 217 | 8.0 | 0.0 | 0.00 | 0.00 | 0.00 | 58 | 1010.5 |
| 20260831064038 | 46 | 218 | 8.0 | 0.0 | 0.00 | 0.00 | 0.00 | 57 | 1010.6 |
| 20260831063547 | 47 | 225 | 8.0 | 0.0 | 0.00 | 0.00 | 0.00 | 54 | 1010.5 |
| 20260831063056 | 47 | 214 | 8.0 | 0.0 | 0.00 | 0.00 | 0.00 | 52 | 1010.3 |
| 20260831062558 | 47 | 203 | 8.0 | 0.0 | 0.00 | 0.00 | 0.00 | 53 | 1010.2 |
| 20260831062009 | 47 | 199 | 8.0 | 0.0 | 0.00 | 0.00 | 0.00 | 54 | 1010.0 |
| 20260831061521 | 46 | 202 | 7.0 | 0.0 | 0.00 | 0.00 | 0.00 | 56 | 1010.1 |
| 20260831061032 | 46 | 200 | 7.0 | 0.0 | 0.00 | 0.00 | 0.00 | 56 | 1010.2 |
| 20260831060537 | 47 | 209 | 7.0 | 0.0 | 0.00 | 0.00 | 0.00 | 55 | 1010.0 |
| 20260831060046 | 47 | 192 | 7.0 | 0.0 | 0.00 | 0.00 | 0.00 | 54 | 1010.0 |
| 20260831055557 | 48 | 200 | 7.0 | 0.0 | 0.00 | 0.00 | 0.00 | 52 | 1010.0 |
| 20260831055009 | 48 | 201 | 6.0 | 0.0 | 0.00 | 0.00 | 0.00 | 52 | 1010.0 |
| 20260831054523 | 47 | 187 | 5.0 | 0.0 | 0.00 | 0.00 | 0.00 | 54 | 1009.8 |
| 20260831054033 | 47 | 180 | 5.0 | 0.0 | 0.00 | 0.00 | 0.00 | 53 | 1009.7 |
| 20260831053545 | 47 | 194 | 6.0 | 0.0 | 0.00 | 0.00 | 0.00 | 53 | 1009.8 |
| 20260831053038 | 47 | 190 | 6.0 | 0.0 | 0.00 | 0.00 | 0.00 | 54 | 1009.7 |
| 20260831052549 | 46 | 209 | 5.0 | 0.0 | 0.00 | 0.00 | 0.00 | 57 | 1009.7 |
| 20260831052101 | 46 | 202 | 4.0 | 0.0 | 0.00 | 0.00 | 0.00 | 58 | 1009.6 |
| 20260831051512 | 47 | 192 | 5.0 | 0.0 | 0.00 | 0.00 | 0.00 | 56 | 1009.6 |
| 20260831051033 | 48 | 201 | 5.0 | 0.0 | 0.00 | 0.00 | 0.00 | 54 | 1009.5 |
| 20260831050543 | 48 | 198 | 5.0 | 0.0 | 0.00 | 0.00 | 0.00 | 53 | 1009.5 |
| 20260831050049 | 48 | 190 | 5.0 | 0.0 | 0.00 | 0.00 | 0.00 | 56 | 1009.4 |
| 20260831045558 | 48 | 185 | 6.0 | 0.0 | 0.00 | 0.00 | 0.00 | 56 | 1009.5 |
| 20260831045012 | 48 | 200 | 6.0 | 0.0 | 0.00 | 0.00 | 0.00 | 56 | 1009.4 |
| 20260831044526 | 48 | 198 | 6.0 | 0.0 | 0.00 | 0.00 | 0.00 | 57 | 1009.4 |
| 20260831044034 | 48 | 193 | 6.0 | 0.0 | 0.00 | 0.00 | 0.00 | 56 | 1009.3 |
| 20260831043604 | 48 | 196 | 5.0 | 0.0 | 0.00 | 0.00 | 0.00 | 56 | 1009.4 |
| 20260831043020 | 49 | 190 | 5.0 | 0.0 | 0.00 | 0.00 | 0.00 | 53 | 1009.4 |
| 20260831042538 | 49 | 195 | 6.0 | 0.0 | 0.00 | 0.00 | 0.00 | 53 | 1009.3 |
| 20260831042054 | 49 | 202 | 5.0 | 0.0 | 0.00 | 0.00 | 0.00 | 52 | 1009.3 |
| 20260831041505 | 50 | 201 | 5.0 | 0.0 | 0.00 | 0.00 | 0.00 | 51 | 1009.2 |
| 20260831041025 | 50 | 222 | 6.0 | 0.0 | 0.00 | 0.00 | 0.00 | 50 | 1009.2 |
| 20260831040538 | 50 | 221 | 7.0 | 0.0 | 0.00 | 0.00 | 0.00 | 50 | 1009.3 |
| 20260831040052 | 50 | 219 | 7.0 | 0.0 | 0.00 | 0.00 | 0.00 | 49 | 1009.3 |
| 20260831035520 | 50 | 235 | 6.0 | 0.0 | 0.00 | 0.00 | 0.00 | 51 | 1009.4 |
| 20260831035034 | 49 | 235 | 4.0 | 0.0 | 0.00 | 0.00 | 0.00 | 52 | 1009.4 |
| 20260831034544 | 50 | 189 | 4.0 | 0.0 | 0.00 | 0.00 | 0.00 | 50 | 1009.2 |
| 20260831034052 | 51 | 194 | 4.0 | 0.0 | 0.00 | 0.00 | 0.00 | 48 | 1009.3 |
| 20260831033601 | 52 | 228 | 4.0 | 0.0 | 0.00 | 0.00 | 0.00 | 47 | 1009.2 |
| 20260831033015 | 53 | 228 | 5.0 | 0.0 | 0.00 | 0.00 | 0.00 | 46 | 1009.0 |
| 20260831032534 | 53 | 217 | 5.0 | 0.0 | 0.00 | 0.00 | 0.00 | 44 | 1009.0 |
| 20260831032047 | 53 | 236 | 4.0 | 0.0 | 0.00 | 0.00 | 0.00 | 43 | 1008.9 |
| 20260831031511 | 54 | 211 | 5.0 | 0.0 | 0.00 | 0.00 | 0.00 | 40 | 1008.9 |
| 20260831031024 | 55 | 211 | 3.0 | 0.0 | 0.00 | 0.00 | 0.00 | 36 | 1008.7 |
| 20260831030543 | 57 | 236 | 2.0 | 0.0 | 0.00 | 0.00 | 0.00 | 34 | 1008.7 |
| 20260831030055 | 56 | 218 | 2.0 | 0.0 | 0.00 | 0.00 | 0.00 | 33 | 1008.7 |
| 20260831025559 | 55 | 218 | 3.0 | 0.0 | 0.00 | 0.00 | 0.00 | 35 | 1008.5 |
| 20260831025103 | 54 | 218 | 3.0 | 0.0 | 0.00 | 0.00 | 0.00 | 38 | 1008.3 |
| 20260831024511 | 54 | 82 | 2.0 | 0.0 | 0.00 | 0.00 | 0.00 | 40 | 1008.2 |
| 20260831024036 | 56 | 80 | 2.0 | 0.0 | 0.00 | 0.00 | 0.00 | 39 | 1007.9 |
| 20260831023545 | 58 | 83 | 3.0 | 0.0 | 0.00 | 0.00 | 0.00 | 36 | 1007.9 |
| 20260831023057 | 59 | 82 | 3.0 | 0.0 | 0.00 | 0.00 | 0.00 | 34 | 1007.8 |
| 20260831022505 | 60 | 88 | 3.0 | 0.0 | 0.00 | 0.00 | 0.00 | 30 | 1007.5 |
| 20260831022024 | 61 | 157 | 2.0 | 0.0 | 0.00 | 0.00 | 0.00 | 30 | 1007.6 |
| 20260831021544 | 62 | 342 | 3.0 | 0.0 | 0.00 | 0.00 | 0.00 | 29 | 1007.4 |
| 20260831021058 | 62 | 280 | 3.0 | 0.0 | 0.00 | 0.00 | 0.00 | 28 | 1007.2 |
| 20260831020505 | 63 | 295 | 2.0 | 0.0 | 0.00 | 0.00 | 0.00 | 28 | 1007.2 |
| 20260831020018 | 64 | 295 | 3.0 | 0.0 | 0.00 | 0.00 | 0.00 | 27 | 1007.1 |
| 20260831015537 | 64 | 295 | 4.0 | 0.0 | 0.00 | 0.00 | 0.00 | 27 | 1007.1 |
| 20260831015047 | 65 | 289 | 4.0 | 0.0 | 0.00 | 0.00 | 0.00 | 25 | 1007.2 |
| 20260831014559 | 65 | 279 | 4.0 | 0.0 | 0.00 | 0.00 | 0.00 | 24 | 1007.1 |
| 20260831014102 | 65 | 285 | 3.0 | 0.0 | 0.00 | 0.00 | 0.00 | 25 | 1007.1 |
| 20260831013521 | 65 | 307 | 4.0 | 0.0 | 0.00 | 0.00 | 0.00 | 25 | 1007.1 |
| 20260831013032 | 65 | 307 | 4.0 | 0.0 | 0.00 | 0.00 | 0.00 | 24 | 1007.1 |
| 20260831012546 | 65 | 305 | 5.0 | 0.0 | 0.00 | 0.00 | 0.00 | 24 | 1007.1 |
| 20260831012052 | 66 | 306 | 4.0 | 0.0 | 0.00 | 0.00 | 0.00 | 23 | 1007.2 |
| 20260831011605 | 66 | 299 | 4.0 | 0.0 | 0.00 | 0.00 | 0.00 | 22 | 1007.2 |
| 20260831011014 | 67 | 300 | 7.0 | 0.0 | 0.00 | 0.00 | 0.00 | 22 | 1007.2 |
| 20260831010540 | 67 | 298 | 9.0 | 0.0 | 0.00 | 0.00 | 0.00 | 21 | 1007.2 |
| 20260831010058 | 68 | 315 | 10.0 | 0.0 | 0.00 | 0.00 | 0.00 | 20 | 1007.2 |
| 20260831005517 | 68 | 298 | 12.0 | 0.0 | 0.00 | 0.00 | 0.00 | 19 | 1007.2 |
| 20260831005037 | 69 | 300 | 13.0 | 0.0 | 0.00 | 0.00 | 0.00 | 18 | 1007.2 |
| 20260831004547 | 69 | 284 | 13.0 | 0.0 | 0.00 | 0.00 | 0.00 | 18 | 1007.1 |
| 20260831004059 | 69 | 292 | 12.0 | 0.0 | 0.00 | 0.00 | 0.00 | 18 | 1007.0 |
| 20260831003525 | 70 | 298 | 10.0 | 0.0 | 0.00 | 0.00 | 0.00 | 18 | 1006.9 |
| 20260831003043 | 70 | 290 | 10.0 | 0.0 | 0.00 | 0.00 | 0.00 | 18 | 1006.9 |
| 20260831002558 | 70 | 309 | 10.0 | 0.0 | 0.00 | 0.00 | 0.00 | 18 | 1006.9 |
| 20260831002016 | 70 | 311 | 10.0 | 0.0 | 0.00 | 0.00 | 0.00 | 18 | 1006.9 |
| 20260831001531 | 70 | 296 | 8.0 | 0.0 | 0.00 | 0.00 | 0.00 | 17 | 1006.9 |
| 20260831001044 | 70 | 290 | 9.0 | 0.0 | 0.00 | 0.00 | 0.00 | 18 | 1006.9 |
| 20260831000552 | 70 | 267 | 11.0 | 0.0 | 0.00 | 0.00 | 0.00 | 16 | 1006.9 |
| 20260830235525 | 70 | 289 | 9.0 | 0.0 | 0.00 | 0.00 | 0.00 | 17 | 1007.0 |
| 20260830235040 | 70 | 280 | 10.0 | 0.0 | 0.00 | 0.00 | 0.00 | 16 | 1007.0 |
| 20260830234559 | 70 | 279 | 10.0 | 0.0 | 0.00 | 0.00 | 0.00 | 15 | 1006.9 |
| 20260830234015 | 70 | 265 | 9.0 | 0.0 | 0.00 | 0.00 | 0.00 | 16 | 1007.0 |
| 20260830233536 | 70 | 277 | 9.0 | 0.0 | 0.00 | 0.00 | 0.00 | 17 | 1007.1 |
| 20260830233054 | 70 | 296 | 9.0 | 0.0 | 0.00 | 0.00 | 0.00 | 17 | 1006.9 |
| 20260830232516 | 71 | 270 | 9.0 | 0.0 | 0.00 | 0.00 | 0.00 | 15 | 1006.9 |
| 20260830232026 | 71 | 265 | 10.0 | 0.0 | 0.00 | 0.00 | 0.00 | 16 | 1007.0 |
| 20260830231541 | 71 | 296 | 11.0 | 0.0 | 0.00 | 0.00 | 0.00 | 16 | 1006.9 |
| 20260830231046 | 71 | 334 | 9.0 | 0.0 | 0.00 | 0.00 | 0.00 | 16 | 1006.7 |
| 20260830230511 | 71 | 257 | 10.0 | 0.0 | 0.00 | 0.00 | 0.00 | 16 | 1007.0 |
| 20260830230019 | 71 | 300 | 12.0 | 0.0 | 0.00 | 0.00 | 0.00 | 17 | 1006.8 |
| 20260830225531 | 71 | 265 | 12.0 | 0.0 | 0.00 | 0.00 | 0.00 | 15 | 1006.8 |
| 20260830225047 | 71 | 278 | 13.0 | 0.0 | 0.00 | 0.00 | 0.00 | 15 | 1006.8 |
| 20260830224502 | 71 | 277 | 11.0 | 0.0 | 0.00 | 0.00 | 0.00 | 16 | 1006.8 |
| 20260830224024 | 71 | 257 | 7.0 | 0.0 | 0.00 | 0.00 | 0.00 | 15 | 1006.8 |
| 20260830223533 | 70 | 234 | 8.0 | 0.0 | 0.00 | 0.00 | 0.00 | 16 | 1007.0 |
| 20260830223043 | 70 | 258 | 9.0 | 0.0 | 0.00 | 0.00 | 0.00 | 16 | 1007.1 |
| 20260830222558 | 70 | 211 | 8.0 | 0.0 | 0.00 | 0.00 | 0.00 | 17 | 1007.1 |
| 20260830222020 | 70 | 256 | 12.0 | 0.0 | 0.00 | 0.00 | 0.00 | 17 | 1007.1 |
| 20260830221531 | 70 | 300 | 11.0 | 0.0 | 0.00 | 0.00 | 0.00 | 17 | 1007.2 |
| 20260830221044 | 70 | 300 | 9.0 | 0.0 | 0.00 | 0.00 | 0.00 | 17 | 1007.2 |